Regional Weather Roundup
Issued by NWS State College, PA

Home | Current Version | Previous Version | Text Only | Print | Product List | Glossary On
Versions: 1 2 3 4 5 6 7 8 9 10 11 12 13 14 15 16 17 18 19 20 21 22 23 24 25 26 27 28 29 30 31 32 33 34 35 36 37 38 39 40 41 42 43 44 45 46 47 48 49 50
000
ASUS41 KCTP 230510
RWRCTP

REGIONAL WEATHER ROUNDUP
NATIONAL WEATHER SERVICE STATE COLLEGE PA
100 AM EDT SAT AUG 23 2014

Note: "fair" indicates few or no clouds below 12,000 feet with no
significant weather and/or obstructions to visibility.

* = STATION THAT DOES NOT REPORT PRECIPITATION /E.G. RAIN...SNOW...ETC/
    THUNDER OR FOG.

PAZ002>004-007>009-013>016-020>023-029>032-230600-
WESTERN PENNSYLVANIA

CITY           SKY/WX    TMP DP  RH WIND       PRES   REMARKS
ERIE           CLEAR     67  63  87 CALM      30.00S
MEADVILLE      PTCLDY    66  63  90 N3        30.03S
FRANKLIN*      PTCLDY    66  64  94 N5        30.03F
NEW CASTLE     NOT AVBL
BEAVER COUNTY  NOT AVBL
BUTLER*        PTCLDY    66  64  94 E3        30.01F
PITTSBURGH INT PTCLDY    69  68  96 W6        29.99F
PITTSBURGH     PTCLDY    72  70  94 CALM      29.99S FOG
INDIANA*       CLOUDY    68  68 100 CALM      30.04F FOG
LATROBE        MOCLDY    72  72 100 CALM      30.01S
WASHINGTON CO* CLOUDY    70  70 100 CALM      30.01F
$$

PAZ004>006-010>012-017>019-024>028-033>037-041-042-045-046-049>053-230600-
CENTRAL PENNSYLVANIA

CITY           SKY/WX    TMP DP  RH WIND       PRES   REMARKS
BRADFORD       FOG       62  61  96 CALM      30.04S VSB 1/2
DUBOIS         FOG       64  64 100 E3        30.02S VSB<1/4
CLEARFIELD     CLOUDY    67  67 100 CALM      30.03S FOG
JOHNSTOWN      MOCLDY    67  65  93 S6        30.04F
ALTOONA        CLOUDY    70  68  93 CALM      30.03S FOG
STATE COLLEGE  CLOUDY    69  67  92 CALM      30.02S
WILLIAMSPORT   HVY RAIN  68  66  93 E13       30.00S VSB 1
SELINSGROVE    CLOUDY    70  66  87 SE3       30.01S
FT INDIANTOWN  DRIZZLE   69  69 100 NE3       30.03S
CAPITAL CITY   CLOUDY    71  66  84 E8        30.01F
HARRISBURG     CLOUDY    73  66  78 SE9       30.00F
YORK           CLEAR     68  66  93 E5        30.02S
$$

PAZ038>040-043-044-047-048-054-055-060>062-067>071-230600-
EASTERN PENNSYLVANIA

CITY           SKY/WX    TMP DP  RH WIND       PRES   REMARKS
SCRANTON       CLOUDY    67  59  75 CALM      30.06R
MOUNT POCONO   CLOUDY    61  59  93 E5        30.09F
ALLENTOWN      CLOUDY    68  61  78 NE5       30.05F
QUAKERTOWN*    CLOUDY    66  61  82 CALM      30.06S
READING        CLOUDY    71  58  63 NE3       30.03F
LANCASTER      CLOUDY    69  63  81 SE7       30.03F
COATESVILLE    MOCLDY    66  66 100 SE7       30.05F
POTTSTOWN      PTCLDY    66  58  75 CALM      30.06S
BLUE BELL      CLEAR     66  63  88 CALM      30.03F
DOYLESTOWN     CLOUDY    66  62  87 CALM      30.04F
WILLOW GROVE   NOT AVBL
NORTH PHILA    CLOUDY    70  61  73 E9        30.05F
PHILADELPHIA   MOCLDY    69  62  78 NE6       30.04S
$$



USA.gov is the U.S. government's official web portal to all federal, state and local government web resources and services.